Terminal Aerodrome Forecast
Issued by NWS Columbia, SC

Home | Current Version | Previous Version | Text Only | Print | Product List | Glossary On
Versions: 1 2 3 4 5 6 7 8 9 10 11 12 13 14 15 16 17 18 19 20 21 22 23 24 25 26 27 28 29 30 31 32 33 34 35 36 37 38 39 40 41 42 43 44 45 46 47 48 49 50
000
FTUS42 KCAE 242100 AAB
TAFAGS
TAF AMD
KAGS 242121Z 2421/2518 24005KT P6SM SCT030 BKN100
     FM250900 30005KT P6SM BKN030 OVC100
     FM251200 31005KT P6SM VCSH OVC050=

USA.gov is the U.S. government's official web portal to all federal, state and local government web resources and services.